This is the latest recevied weather packets stored in our database for station/object EMGATE. If no packets are shown the sender has not sent any weather packets the latest 10 day(s).
| Time | Temp. | Humidity | Pressure | Rain* | Wind** | Luminosity | Snow |
|---|---|---|---|---|---|---|---|
| 1777487041 | 17.22° C | 52% | 1010.6 hPa | 0 mm | - | - | - |
| 1777486141 | 17.22° C | 49% | 1010.8 hPa | 0 mm | - | - | - |
| 1777485241 | 17.22° C | 49% | 1010.7 hPa | 0 mm | - | - | - |
| 1777484341 | 16.11° C | 50% | 1010.8 hPa | 0 mm | - | - | - |
| 1777483441 | 15.56° C | 53% | 1011 hPa | 0 mm | - | - | - |
| 1777482541 | 15.56° C | 52% | 1011.3 hPa | 0 mm | - | - | - |
| 1777481641 | 15° C | 51% | 1011.4 hPa | 0 mm | - | - | - |
| 1777480741 | 15° C | 53% | 1011.5 hPa | 0 mm | - | - | - |
| 1777479841 | 15° C | 50% | 1011.7 hPa | 0 mm | - | - | - |
| 1777478941 | 14.44° C | 49% | 1011.8 hPa | 0 mm | - | - | - |
| 1777478041 | 14.44° C | 49% | 1012 hPa | 0 mm | - | - | - |
| 1777477141 | 14.44° C | 50% | 1012.1 hPa | 0 mm | - | - | - |
| 1777476241 | 14.44° C | 48% | 1012.2 hPa | 0 mm | - | - | - |
| 1777475341 | 14.44° C | 48% | 1012.4 hPa | 0 mm | - | - | - |
| 1777474441 | 14.44° C | 46% | 1012.4 hPa | 0 mm | - | - | - |
| 1777473541 | 13.89° C | 47% | 1012.5 hPa | 0 mm | - | - | - |
| 1777472641 | 13.33° C | 47% | 1012.7 hPa | 0 mm | - | - | - |
| 1777471741 | 13.33° C | 46% | 1012.7 hPa | 0 mm | - | - | - |
| 1777470841 | 13.33° C | 46% | 1012.7 hPa | 0 mm | - | - | - |
| 1777469941 | 13.33° C | 45% | 1012.8 hPa | 0 mm | - | - | - |
| 1777469041 | 13.33° C | 44% | 1012.9 hPa | 0 mm | - | - | - |
| 1777468141 | 14.44° C | 42% | 1012.8 hPa | 0 mm | - | - | - |
| 1777467241 | 14.44° C | 44% | 1013.2 hPa | 0 mm | - | - | - |
| 1777466341 | 12.78° C | 43% | 1013.4 hPa | 0 mm | - | - | - |
| 1777465442 | 12.22° C | 46% | 1013.6 hPa | 0 mm | - | - | - |
* Rain latest hour (hover to see other rain measurements)
** Current wind speed in m/s (hover to see current wind gust speed)